Flag for Germany

Past Weather in 51°27'28"N, 7°00'53"E, Germany — Yesterday and Last 2 Weeks

Currently: 48 °F. Overcast. (Weather station: Duesseldorf, Germany). See more current weather

Past Weather in 51°27'28"N, 7°00'53"E — Graph

°F

51°27'28"N, 7°00'53"E Temperature Yesterday

Maximum temperature yesterday: 52 °F (at 2:20 pm)
Minimum temperature yesterday: 39 °F (at 6:20 am)
Average temperature yesterday: 46 °F

High & Low Weather Summary for the Past Weeks

 TemperatureHumidityPressure
High61 °F (Feb 15, 1:50 pm)100% (Feb 7, 10:20 pm)30.51 "Hg (Feb 7, 10:20 pm)
Low36 °F (Feb 7, 10:20 pm)58% (Feb 13, 2:50 pm)29.09 "Hg (Feb 9, 6:50 am)
Average49 °F85%29.84 "Hg
* Reported Feb 6 8:20 am — Feb 21 8:20 am, 51°27'28"N, 7°00'53"E. Weather by CustomWeather, © 2024

Note: Actual official high and low records may vary slightly from our data, if they occured in-between our weather recording intervals... More about our weather records

51°27'28"N, 7°00'53"E Weather History for the Previous 24 Hours

Scroll right to see more
 ConditionsComfort  
Time TempWeatherWind HumidityBarometerVisibility
8:20 am
Wed, Feb 21
48 °FOvercast.13 mph76%30.09 "HgN/A
7:50 am48 °FOvercast.13 mph76%30.09 "HgN/A
7:20 am48 °FOvercast.13 mph76%30.12 "HgN/A
6:50 am48 °FOvercast.10 mph76%30.12 "HgN/A
6:20 am48 °FOvercast.14 mph76%30.12 "HgN/A
5:50 am48 °FMostly cloudy.12 mph76%30.15 "HgN/A
5:20 am48 °FOvercast.13 mph76%30.15 "HgN/A
4:50 am48 °FOvercast.14 mph76%30.15 "HgN/A
4:20 am48 °FOvercast.14 mph76%30.15 "HgN/A
3:50 am48 °FMostly cloudy.10 mph82%30.15 "HgN/A
3:20 am48 °FMostly cloudy.13 mph82%30.18 "HgN/A
2:50 am48 °FMostly cloudy.12 mph82%30.18 "HgN/A
2:20 am48 °FMostly cloudy.12 mph82%30.21 "HgN/A
1:50 am48 °FOvercast.10 mph82%30.21 "HgN/A
12:20 am48 °FPassing clouds.12 mph76%30.24 "HgN/A
11:50 pm
Tue, Feb 20
48 °FOvercast.14 mph76%30.24 "HgN/A
11:20 pm48 °FOvercast.14 mph76%30.24 "HgN/A
10:50 pm48 °FOvercast.13 mph76%30.24 "HgN/A
10:20 pm46 °FOvercast.13 mph82%30.27 "HgN/A
9:50 pm48 °FDrizzle. Overcast.14 mph76%30.27 "HgN/A
9:20 pm48 °FOvercast.13 mph76%30.27 "HgN/A
8:50 pm48 °FOvercast.13 mph76%30.27 "HgN/A
8:20 pm48 °FOvercast.13 mph76%30.30 "HgN/A
7:50 pm48 °FPassing clouds.15 mph76%30.30 "HgN/A
7:20 pm48 °FClear.14 mph76%30.27 "Hg10 mi
6:50 pm48 °FPassing clouds.13 mph76%30.27 "HgN/A
6:20 pm48 °FPassing clouds.13 mph76%30.30 "HgN/A
5:50 pm50 °FScattered clouds.15 mph71%30.30 "HgN/A
5:20 pm50 °FPassing clouds.13 mph76%30.27 "HgN/A
4:50 pm52 °FPassing clouds.14 mph72%30.27 "HgN/A
4:20 pm52 °FPartly sunny.15 mph72%30.27 "HgN/A
3:20 pm52 °FPartly sunny.16 mph72%30.30 "HgN/A
2:50 pm52 °FScattered clouds.14 mph72%30.30 "HgN/A
2:20 pm52 °FPassing clouds.16 mph72%30.33 "HgN/A
1:50 pm50 °FPassing clouds.14 mph76%30.33 "HgN/A
1:20 pm48 °FPassing clouds.14 mph82%30.33 "HgN/A
12:50 pm48 °FPassing clouds.16 mph87%30.36 "HgN/A
12:20 pm48 °FPassing clouds.15 mph82%30.36 "HgN/A
11:50 am48 °FPartly sunny.13 mph82%30.36 "HgN/A
11:20 am46 °FPartly sunny.13 mph87%30.39 "HgN/A
10:50 am46 °FPassing clouds.9 mph87%30.39 "HgN/A
10:20 am46 °FScattered clouds.9 mph87%30.39 "HgN/A
9:50 am45 °FScattered clouds.9 mph93%30.39 "HgN/A
9:20 am45 °FLow clouds.9 mph93%30.36 "HgN/A
Weather by CustomWeather, © 2024

See weather overview